www.pogodaiklimat.ru

Погода и климат >> Архив погоды >> Индия >> Pondicherry


ПОГОДА в Pondicherry

  • Прогноз погоды в Pondicherry
  • Монитор погоды в Pondicherry
  • Климат города

АРХИВ ПОГОДЫ в Pondicherry

Время (UTC), дата Ветер
(напр.,м/с)
 
Видим.   Явления Облачность Т
(С)
Тd
(С)
f
(%)
Тe
(С)
Тes
(С)
Комфортность P
(гПа)
Po
(гПа)
Тmin
(С)
Tmax
(С)
R
(мм)
R24
(мм)
S
(см)
09 10.12 штиль 0 10 км 8/3 600 м
[Sc Ac trans Ci fib]
+29.6 +22.9 67 +39 +45 очень
душно
1010.5 1006.2
12 10.12 СВ 1 10 км 6/4 600 м
[Sc Ci fib]
+28.4 +23.5 75 +39 +39 очень
душно
1010.5 1006.2 +30.2
15 10.12 С 1 4000 м 6/3 600 м
[Sc Ci fib]
+24.6 +21.6 83 +31 +31 очень
душно
1012.3 1008.0
18 10.12 СВ 1 4000 м 5/3 600 м
[Sc Ci fib]
+23.6 +21.2 86 +30 +30 очень
душно
1012.7 1008.4
21 10.12 штиль 0 4000 м 4/1 600 м
[Sc Ci fib]
+23.0 +21.5 91 +31 +31 очень
душно
1011.2 1006.9
00 11.12 штиль 0 2000 м мгла 3/0 600 м
[Ci fib]
+21.8 +20.6 93 +28 +28 душно 1011.3 1007.0
03 11.12 СВ 1 4000 м мгла 3/0
[Ci fib]
+23.2 +21.7 91 +31 +36 очень
душно
1014.3 1010.0 +19.2 +30.2
06 11.12 С 1 10 км 5/4 600 м
[Sc diur, vesp Ci fib]
+28.8 +23.0 71 +39 +48 очень
душно
1013.5 1009.2
09 11.12 штиль 0 10 км 3/0
[Ci fib]
+29.4 +22.0 64 +38 +50 очень
душно
1010.6 1006.3
12 11.12 В 2 10 км 5/1 600 м
[Sc Ac trans Ci fib]
+27.2 +21.5 71 +35 +35 очень
душно
1010.4 1006.1 +30.4
15 11.12 штиль 0 4000 м 8/0 2000 м
[Ac trans Ci fib]
+25.0 +21.7 82 +32 +32 очень
душно
1013.1 1008.8
18 11.12 штиль 0 4000 м 1/0
[Ci fib]
+24.2 +21.5 85 +31 +31 очень
душно
1013.3 1009.0
21 11.12 С 1 4000 м 3/0
[Ci fib]
+23.4 +22.2 93 +32 +32 очень
душно
1012.0 1007.7
00 12.12 С 1 2000 м мгла 8/3 600 м
[Sc Ac trans Ci fib]
+22.2 +21.3 95 +29 +29 очень
душно
1012.7 1008.3
03 12.12 СЗ 1 10 км мгла 6/3 600 м
[Sc Ac trans]
+23.6 +21.8 90 +30 +33 очень
душно
1014.5 1010.2 +19.6 +30.4
06 12.12 С 1 10 км 8/4 600 м
[Sc Ac trans]
+28.0 +23.0 74 +37 +43 очень
душно
1014.1 1009.8
09 12.12 С 1 10 км 5/3 600 м
[Sc Ac trans]
+30.4 +23.8 68 +42 +48 опасность
перегрева
1011.4 1007.1
12 12.12 СВ 2 10 км 5/3 600 м
[Sc Ci fib]
+28.0 +23.0 74 +37 +37 очень
душно
1011.3 1007.0 +31.0
15 12.12 СЗ 1 4000 м 5/3 600 м
[Sc Ac trans Ci fib]
+24.8 +22.1 85 +32 +32 очень
душно
1013.7 1009.4
18 12.12 С 1 4000 м 5/3 600 м
[Sc Ac trans]
+24.4 +22.6 90 +32 +32 очень
душно
1013.7 1009.4
21 12.12 З 1 4000 м 5/3 600 м
[Sc Ac trans]
+24.2 +22.7 91 +32 +32 очень
душно
1012.9 1008.6
00 13.12 С 2 2000 м мгла 5/3 600 м
[Sc Ac trans]
+23.8 +22.0 90 +31 +31 очень
душно
1013.3 1009.0
03 13.12 СВ 2 4000 м мгла 9/5 600 м
[Sc Ac trans Ci sp]
+24.0 +22.5 91 +31 +33 очень
душно
1014.9 1010.6 +19.9 +31.0
06 13.12 С 2 10 км 9/5 600 м
[Cu Sc Ac trans Ci sp]
+28.4 +23.5 75 +39 +43 очень
душно
1014.3 1010.0
09 13.12 штиль 0 10 км 6/3 600 м
[Sc Ci fib]
+30.2 +23.2 66 +40 +49 очень
душно
1011.7 1007.4
12 13.12 СЗ 1 10 км 6/1 600 м
[Sc Ci fib]
+27.0 +22.6 77 +36 +36 очень
душно
1011.9 1007.6 +30.4
15 13.12 СЗ 1 4000 м 4/0
[Ci fib]
+25.0 +22.3 85 +33 +33 очень
душно
1014.1 1009.8
18 13.12 С 2 4000 м 3/0
[Ci fib]
+24.2 +22.4 90 +32 +32 очень
душно
1013.9 1009.6
21 13.12 С 2 4000 м 3/0
[Ci fib]
+23.0 +22.1 95 +31 +31 очень
душно
1012.3 1008.0
00 14.12 С 2 2000 м мгла 4/0
[Ci fib]
+22.4 +21.8 96 +30 +30 очень
душно
1012.8 1008.4
03 14.12 С 1 10 км 4/0 2000 м
[Ac trans Ci fib]
+23.4 +21.9 91 +32 +36 очень
душно
1014.9 1010.6 +19.5 +30.4
06 14.12 С 1 10 км 6/5 600 м
[Sc diur, vesp Ci fib]
+28.8 +23.0 71 +39 +47 очень
душно
1014.2 1009.9
09 14.12 СВ 2 10 км 4/1 600 м
[Sc diur, vesp Ac trans Ci fib]
+30.6 +23.0 64 +41 +48 опасность
перегрева
1011.2 1006.9
12 14.12 С 2 10 км 8/3 600 м
[Sc diur, vesp Ac trans Ci fib]
+28.0 +23.0 74 +37 +37 очень
душно
1011.2 1006.9 +31.2
15 14.12 С 1 4000 м 3/0
[Ci fib]
+25.6 +22.3 82 +33 +33 очень
душно
1014.0 1009.7
18 14.12 СВ 2 4000 м 1/0
[Ci fib]
+25.0 +22.6 87 +33 +33 очень
душно
1013.0 1008.7
21 14.12 С 3 4000 м 5/0
[Ci fib]
+24.4 +22.9 91 +32 +32 очень
душно
1011.8 1007.5
00 15.12 С 2 2000 м мгла 8/0 2000 м
[Ac trans Ci fib]
+24.0 +22.5 91 +31 +31 очень
душно
1011.2 1006.9
03 15.12 С 1 4000 м мгла 6/4 600 м
[Sc Ci fib]
+25.0 +22.6 87 +33 +36 очень
душно
1013.7 1009.4 +21.3 +31.2
06 15.12 С 3 10 км 9/4 600 м
[Sc Ac trans Ci fib]
+28.2 +22.3 70 +37 +41 очень
душно
1013.2 1008.9
09 15.12 С 2 10 км 9/3 600 м
[Sc Ac trans Ci fib]
+29.4 +20.7 60 +37 +40 очень
душно
1010.3 1006.0
12 15.12 С 1 4000 м 10/3 600 м
[Sc Ac trans Ci sp]
+27.4 +20.4 66 +34 +34 очень
душно
1011.2 1006.9 +29.7
15 15.12 С 1 4000 м 8/3 600 м
[Sc Ac trans Ci sp]
+26.2 +20.7 72 +33 +33 очень
душно
1012.7 1008.4
18 15.12 С 2 4000 м 8/3 600 м
[Sc Ac trans Ci sp]
+25.6 +21.7 79 +33 +33 очень
душно
1012.1 1007.8
21 15.12 С 1 4000 м 8/3 600 м
[Sc Ac trans Ci sp]
+25.0 +22.0 83 +32 +32 очень
душно
1011.0 1006.7
00 16.12 СЗ 1 4000 м 8/3 600 м
[Sc Ac trans Ci sp]
+24.2 +22.4 90 +32 +32 очень
душно
1010.9 1006.6
03 16.12 С 2 10 км 10/4 600 м
[Sc Ac As]
+24.4 +20.7 80 +30 +31 очень
душно
1013.1 1008.8 +21.4 +29.7
06 16.12 СЗ 2 10 км 10/5 600 м
[Sc Ac As]
+26.4 +20.6 70 +33 +35 очень
душно
1012.1 1007.8
09 16.12 С 2 10 км 10/5 600 м
[Sc Ac As]
+25.8 +18.2 63 +30 +32 душно 1009.7 1005.4
12 16.12 С 3 4000 м 10/5 600 м
[Sc Ac As]
+25.0 +18.0 65 +29 +29 душно 1009.6 1005.3 +26.0
15 16.12 СЗ 2 4000 м 10/5 600 м
[Sc Ac As]
+24.0 +15.8 60 +27 +27 жарко 1011.8 1007.5
18 16.12 СЗ 2 4000 м 9/4 600 м
[Sc Ac As]
+23.0 +16.5 67 +28 +28 душно 1012.1 1007.7
21 16.12 СЗ 2 4000 м 9/4 600 м
[Sc Ac As]
+22.6 +16.4 68 +27 +27 душно 1010.2 1005.8
00 17.12 штиль 0 2000 м мгла 9/4 600 м
[Sc Ac As]
+20.0 +16.7 81 +22 +22 комфорт 1011.0 1006.6
03 17.12 СЗ 1 4000 м мгла 8/4 600 м
[Sc Ci fib]
+22.0 +18.2 79 +27 +29 душно 1012.9 1008.5 +17.3 +26.0
06 17.12 ЮЗ 1 10 км 8/4 600 м
[Sc Ac trans Ci sp]
+27.6 +18.2 57 +32 +39 очень
душно
1012.1 1007.8

 

Местоположение метеостанции Pondicherry (Pondicherry, Индия): широта 11.97 долгота 79.82 высота над уровнем моря 38 м.

В архиве по умолчанию представлена погода в Pondicherry за последнюю неделю. Архивные данные за месяц целиком и за предыдущие месяцы, начиная с января 2011 года, Вы можете получить, выбрав интересующий диапазон дат из раскрывающегося списка и нажав кнопку "Ввод!".


*Определитесь, кто Вы:
робот инопланетянин человек

Внимание! Время в таблицах - всемирное. Для получения местного времени необходимо прибавить поправку, которая в Pondicherry равна 5.5 ч.

Смотрите также архив погоды в соседних городах и на ближайших метеорологических станциях:

Погода в Cuddalore (Tamil Nadu, Индия) (23 км)
Погода в Parangipettai (Tamil Nadu, Индия) (53 км)
Погода в Karaikal (Pondicherry, Индия) (117 км)
Погода в Chennai Airport (Tamil Nadu, Индия) (121 км)
Погода в Vellore (Tamil Nadu, Индия) (128 км)
Погода в Chennai (Tamil Nadu, Индия) (129 км)
Погода в Nagapattinam (Tamil Nadu, Индия) (134 км)
Погода в Tiruttani (Tamil Nadu, Индия) (135 км)
Погода в Tiruppattur (Tamil Nadu, Индия) (147 км)
Погода в Thanjavur (Tamil Nadu, Индия) (152 км)

Пояснения к столбцам:

Ветер - указаны скорость ветра в м/с - средняя за 10 мин, порывы в срок и между сроками (в фигурных скобках) и направление, откуда дует ветер: С - северный, СВ - северо-восточный, В - восточный, ЮВ - юго-восточный, Ю - южный, ЮЗ - юго-западный, З - западный, СЗ - северо-западный.
Видимость - горизонтальная дальность видимости в метрах или километрах. При видимости от 1 до 10 км при отсутствии осадков обычно наблюдается дымка, при ухудшении видимости до 1 км и менее - туман. В сухую погоду видимость может ухудшаться дымом, пылью или мглою.
Явления - указаны атмосферные явления, наблюдавшиеся в срок или в последний час перед сроком; фигурными скобками обозначены явления, наблюдавшиеся между сроками (за 1-3 часа до срока); квадратными скобками обозначены град или гололедные отложения с указанием их диаметра в мм.
Облачность - указаны через наклонную черту общая и нижняя облачность в баллах и высота нижней границы облаков в метрах; квадратными скобками обозначены формы облаков: Ci - перистые, Cs - перисто-слоистые, Cc - перисто-кучевые, Ac - высококучевые, As - высокослоистые, Sc - слоисто-кучевые, Ns - слоисто-дождевые, Cu - кучевые, Cb - кучево-дождевые. Подробнее классификацию облаков см. в Атласе облаков (PDF).
T - Температура воздуха - температура, измеренная на высоте 2 м над землей.
Td - Температура точки росы - температура, при понижении до которой содержащийся в воздухе водяной пар достигнет насыщения.
f - Относительная влажность воздуха - влажноcть воздуха, измеренная на высоте 2 м над землей.
Te - Эффективная температура - температура, которую ощущает одетый по сезону человек в тени. Характеристика душности погоды. При расчете учитывается влияние влажности воздуха и скорости ветра на теплоощущения человека.
Tes - Эффективная температура на солнце - температура, которую ощущает человек, с поправкой на солнечный нагрев. Характеристика знойности погоды. Зависит от высоты солнца над горизонтом, облачности и скорости ветра. Ночью, в пасмурную погоду, а также при ветре 12 м/с и более поправка равна нулю.
P - Атмосферное давление - приведенное к уровню моря атмосферное давление.
Po - Атмосферное давление - измеренное на уровне метеостанции атмосферное давление.
Tmin - Минимальная температура - минимум температуры воздуха на высоте 2 м над землей.
Tmax - Максимальная температура - максимум температуры воздуха на высоте 2 м над землей.
R - Количество осадков - Количество выпавших осадков за период времени, мм. При наведении курсора мыши на число - период времени, за который выпало указанное количество осадков.
R24 - Количество осадков - Количество выпавших осадков за 24 часа, мм.
S - Снежный покров - Высота снежного покрова, см. При наведении курсора мыши на число - состояние снежного покрова и степень покрытия местности в баллах.